Location: UBC Liquid-Mirror Observatory
(49.2876°N, 122.5728°W)
Time: 03:13:21
(UTC-07:00)

KITSAT 1 - Visible Passes

Search period start: 31 August 2014 00:00
Search period end: 10 September 2014 00:00
Orbit: 1311 x 1320 km, 66.1° (Epoch: 28 August)

Date Brightness Start Highest point End Pass type
(mag) Time Alt. Az. Time Alt. Az. Time Alt. Az.
31 Aug 10.6 01:42:42 43° W 01:45:09 58° NW 01:53:09 10° NE visible
31 Aug 11.8 03:35:42 10° WNW 03:42:24 27° NNW 03:49:07 10° NE visible
31 Aug 12.1 05:34:11 10° NW 05:40:44 26° NNE 05:47:15 10° ENE visible
31 Aug 11.9 22:14:05 13° E 22:14:05 13° E 22:15:46 10° ENE visible
01 Sep 10.2 00:06:02 62° ESE 00:06:02 62° ESE 00:13:44 10° NE visible
01 Sep 11.0 01:57:59 30° W 02:01:33 46° NW 02:09:18 10° NE visible
01 Sep 12.0 03:52:45 10° WNW 03:59:12 25° N 04:05:39 10° NE visible
01 Sep 12.0 05:50:39 10° NW 05:57:30 29° NNE 06:04:18 10° ENE visible
01 Sep 11.5 22:29:19 20° E 22:29:19 20° E 22:33:14 10° ENE visible
02 Sep 10.0 00:21:15 78° S 00:21:47 83° SE 00:29:56 10° NE visible
02 Sep 11.3 02:13:12 20° W 02:18:04 37° NNW 02:25:29 10° NE visible
02 Sep 12.1 04:09:43 10° NW 04:16:02 24° N 04:22:21 10° NE visible
02 Sep 11.0 22:44:28 30° E 22:44:28 30° E 22:50:00 10° NE visible
03 Sep 10.2 00:36:24 61° WSW 00:37:56 76° NW 00:46:04 10° NE visible
03 Sep 11.6 02:28:20 13° W 02:34:41 31° NNW 02:41:45 10° NE visible
03 Sep 12.1 04:26:33 10° NW 04:32:53 24° N 04:39:13 10° ENE visible
03 Sep 10.5 22:59:31 43° ESE 22:59:31 43° ESE 23:06:28 10° NE visible
04 Sep 10.6 00:51:27 41° W 00:54:11 59° NW 01:02:12 10° NE visible
04 Sep 11.8 02:44:41 10° WNW 02:51:24 28° NNW 02:58:08 10° NE visible
04 Sep 12.1 04:43:12 10° NW 04:49:43 26° NNE 04:56:13 10° ENE visible
04 Sep 11.7 21:22:32 13° E 21:22:32 13° E 21:24:38 10° ENE visible
04 Sep 10.1 23:14:27 60° SE 23:14:50 61° ESE 23:22:46 10° NE visible
05 Sep 11.0 01:06:21 27° W 01:10:34 47° NW 01:18:21 10° NE visible
05 Sep 12.0 03:01:44 10° WNW 03:08:11 25° N 03:14:39 10° NE visible
05 Sep 12.0 04:59:41 10° NW 05:06:30 28° NNE 05:13:17 10° ENE visible
05 Sep 11.3 21:37:16 21° E 21:37:16 21° E 21:42:13 10° ENE visible
05 Sep 10.1 23:29:09 60° SSW 23:30:50 81° ESE 23:38:58 10° NE visible
06 Sep 11.3 01:21:03 15° W 01:27:04 38° NNW 01:34:32 10° NE visible
06 Sep 12.1 03:18:42 10° NW 03:25:02 24° N 03:31:21 10° NE visible
06 Sep 11.9 05:16:02 10° NW 05:23:11 33° NNE 05:30:19 10° E visible
06 Sep 10.8 21:51:40 30° ESE 21:52:15 30° ESE 21:59:01 10° NE visible
06 Sep 10.2 23:43:31 39° SW 23:46:58 78° NW 23:55:07 10° NE visible
07 Sep 11.6 01:36:36 10° W 01:43:41 32° NNW 01:50:47 10° NE visible
07 Sep 12.1 03:35:33 10° NW 03:41:53 24° N 03:48:13 10° ENE visible
07 Sep 11.6 05:32:16 10° NW 05:39:47 39° NNE 05:47:15 10° E visible
07 Sep 10.5 22:05:16 33° SSE 22:08:01 43° ESE 22:15:29 10° NE visible
07 Sep 10.6 23:57:01 18° WSW 00:03:13 60° NW 00:11:15 10° NE visible
08 Sep 11.9 01:53:39 10° WNW 02:00:24 28° NNW 02:07:09 10° NE visible
08 Sep 12.1 03:52:12 10° NW 03:58:43 25° NNE 04:05:12 10° ENE visible
08 Sep 11.3 05:48:27 10° NW 05:56:16 49° NE 06:04:01 10° ESE visible
08 Sep 11.6 20:26:53 10° ESE 20:30:12 13° E 20:33:30 10° ENE visible
08 Sep 10.2 22:16:01 10° SSW 22:23:54 59° ESE 22:31:48 10° NE visible
09 Sep 11.0 00:11:50 10° WSW 00:19:36 47° NW 00:27:23 10° NE visible
09 Sep 12.0 02:10:43 10° WNW 02:17:11 25° N 02:23:40 10° NE visible
09 Sep 12.0 04:08:42 10° NW 04:15:30 28° NNE 04:22:15 10° ENE visible
09 Sep 10.9 06:04:35 10° NW 06:12:37 62° NE 06:20:36 10° SE visible
09 Sep 11.2 20:40:13 10° SE 20:45:42 20° ESE 20:51:11 10° ENE visible
09 Sep 10.1 22:31:48 10° SSW 22:39:53 80° ESE 22:48:00 10° NE visible
